Current weather by "City, St" or "zip code"  
 
Advertise Here

Current Conditions: De Quincy Industrial Airpark, LA

Overcast


74.0 F

Last Updated on Sep 16 2021, 9:55 pm CDT
Humidity: 96%
Wind Speed: N 3.5 mph
Barometer 29.88 in
Dewpoint: 73.0 F
Visibility: 10.00 mi
Precip: 00.01 in
Heat Index: NA
Wind Chill: NA
Current conditions at:

De Quincy Industrial Airpark, LA (K5R8)

Lat: 30.4412 Lon: 93.4735

Local Radar Image active severe weather and emergency alerts image image weather storm and storm spotter reports image weather observation monitoring service image
Local
Radar
Active
Alerts
Storm Reports Obs
Monitoring

Sign-up For Email & Text Message Weather Alert Notification Services



Advertise Here

Observation History for De Quincy Industrial Airpark, LA


Time Wind
(mph)
Vis
(mi)
Weather Precip (in) Temperature (F) Relative
Humidity
Wind
Chill
(F)
Heat
Index
(F)
Pressure
Air Dwpt altimeter
(in)
sea level
(mb)
Rmks
9:55 pm CDT N 3.5 10.00 Overcast 00.01 74.0 73.0 96% NA NA 29.88 M
8:55 pm CDT NW 3.5 4.00 Drizzle 00.01 74.0 73.4 97% NA NA 29.87 M
7:55 pm CDT NW 3.5 10.00 Overcast -- 74.0 73.0 96% NA NA 29.85 M
6:55 pm CDT N 4.6 3.00 Fog/Mist 00.01 75.0 73.0 95% NA NA 29.83 M
5:55 pm CDT N 5.8 10.00 Overcast 00.01 76.0 72.9 91% NA NA 29.83 M
4:55 pm CDT N 3.5 10.00 Overcast 00.01 76.0 73.2 90% NA NA 29.82 M
3:55 pm CDT N 4.6 10.00 Overcast 00.01 76.0 73.2 91% NA NA 29.82 M
2:55 pm CDT N 4.6 4.00 Fog/Mist 00.01 76.0 73.4 91% NA NA 29.83 M
1:55 pm CDT N 3.5 10.00 Overcast -- 76.0 72.7 89% NA NA 29.85 M
11:55 am CDT N 4.6 10.00 Overcast -- 74.0 72.5 95% NA NA 29.87 M
10:55 am CDT N 0.0 3.00 Light Drizzle -- 73.0 72.0 96% NA NA 29.87 M
9:55 am CDT N 0.0 5.00 Fog/Mist -- 73.0 71.6 96% NA NA 29.86 M
8:55 am CDT N 3.5 10.00 Overcast -- 72.0 71.1 96% NA NA 29.85 M
7:55 am CDT N 0.0 10.00 Overcast -- 72.0 70.9 95% NA NA 29.83 M
6:55 am CDT N 4.6 10.00 Overcast -- 72.0 70.9 96% NA NA 29.81 M
5:55 am CDT N 0.0 7.00 Overcast -- 72.0 70.9 96% NA NA 29.80 M
4:55 am CDT N 3.5 10.00 Overcast -- 72.0 70.7 96% NA NA 29.80 M
3:55 am CDT N 3.5 5.00 Fog/Mist -- 73.0 70.5 94% NA NA 29.80 M
2:55 am CDT NE 5.8 10.00 Overcast -- 73.0 70.2 91% NA NA 29.80 M
1:55 am CDT N 3.5 10.00 Overcast -- 73.0 69.8 90% NA NA 29.81 M
12:55 am CDT N 3.5 10.00 Overcast -- 73.0 69.4 90% NA NA 29.82 M
11:55 pm CDT N 4.6 10.00 Mostly Cloudy -- 73.0 69.8 90% NA NA 29.83 M
10:55 pm CDT N 5.8 10.00 Overcast -- 74.0 69.8 88% NA NA 29.82 M

Regional Weather Observation


De Quincy Industrial Airpark, LA (K5R8)

Overcast
74.0 F

Orange, Orange County Airport, TX (KORG)

Overcast
77.0 F

Southland Field, LA (KUXL)

Overcast
76.0 F

Chenault Airpark, LA (KCWF)

Overcast
75.0 F

Lake Charles Regional Airport, LA (KLCH)

Overcast
76.0 F

Jasper, Jasper County-Bell Field Airport, TX (KJAS)

Overcast
73.0 F
Advertise Here


Advertise Here